STARLINK-1198 (45200 NORAD) Tracking and Keplerian Element Data

This shows tracking and keplerian element data for the satellite.

Feedback or suggestion? Click here.




ElementValue
Catalog45200
NameSTARLINK-1198
Epoch Orbit751
Epoch Day94.25001157
Epoch Year2020
RAAN42.8832
Inclination53.0001
Eccentricity0.000172
Argument of Perigee57.1818
Mean Anonmoly60.3155
Mean Motion15.62719273
Decay Rate0.00032691
L11 45200U 20012Y 20094.25001157 .00032691 00000-0 36188-3 0 9992
L22 45200 53.0001 42.8832 0001720 57.1818 60.3155 15.62719273 7515

Live tracking and technical data element details for STARLINK-1198 (NORAD 45200). STARLINK-1198 can be tracked NOW for your location showing map with azimuth and elevation plus other details from your city location.

Track the satellite on the map from your city or location and see movement details for azimuth, elevation, latitude, longitude, range, height, and movement on the map or in text.







IsCatalogInMostPopularTable: catalog: 45200, numindb: 5
Update: records affected: 1



GetName: 45200 STARLINK-1198

Hit Count: updated at: Mon, 06 Apr 2020 10:29:12 GMT